FW2748 Weather Reports


time (UTC)temp
C
wind
direction
speed
KPH
gust
KPH
rain 1hr
cm
rain 24hr
cm
rain mn
cm
humidity
%
barometer
mb
20260510060305 10 102 1.6 1.6 0.00 0.13 0.00 78 1035.6
20260510055805 10 102 1.6 3.2 0.00 0.13 0.13 77 1035.6
20260510055307 10 102 0.0 0.0 0.00 0.13 0.13 77 1035.6
20260510054805 10 102 0.0 0.0 0.00 0.13 0.13 77 1035.6
20260510054305 10 102 0.0 1.6 0.00 0.13 0.13 77 1035.6
20260510053804 10 102 0.0 3.2 0.00 0.13 0.13 77 1035.6
20260510053305 11 102 3.2 3.2 0.00 0.13 0.13 77 1035.6
20260510052804 11 102 3.2 3.2 0.00 0.13 0.13 76 1035.6
20260510052306 11 102 4.8 8.0 0.00 0.13 0.13 76 1035.6
20260510050304 11 102 0.0 0.0 0.00 0.13 0.13 76 1035.6
20260510045804 11 102 0.0 1.6 0.00 0.13 0.13 77 1035.6
20260510045306 11 102 1.6 4.8 0.00 0.13 0.13 77 1035.6
20260510044804 11 102 4.8 4.8 0.00 0.13 0.13 77 1035.6
20260510044305 11 103 6.4 9.7 0.00 0.13 0.13 77 1035.6
20260510043804 11 104 4.8 4.8 0.00 0.13 0.13 77 1035.6
20260510043305 11 104 4.8 4.8 0.00 0.13 0.13 76 1035.6
20260510042805 11 101 4.8 8.0 0.00 0.13 0.13 75 1035.6
20260510042306 11 101 8.0 8.0 0.00 0.13 0.13 76 1035.6
20260510041304 11 101 3.2 8.0 0.00 0.13 0.13 75 1035.6
20260510040805 11 101 3.2 4.8 0.00 0.13 0.13 75 1035.6
20260510040305 11 101 3.2 4.8 0.00 0.13 0.13 74 1035.6
20260510035805 11 101 0.0 0.0 0.00 0.13 0.13 74 1035.6
20260510035306 12 101 0.0 4.8 0.00 0.13 0.13 74 1035.6
20260510034804 12 101 8.0 11.3 0.00 0.13 0.13 73 1035.6
20260510034304 12 102 8.0 9.7 0.00 0.13 0.13 73 1035.6
20260510033805 12 103 4.8 12.9 0.00 0.13 0.13 73 1035.6
20260510032804 12 105 8.0 9.7 0.00 0.13 0.13 72 1035.6
20260510032306 12 90 4.8 9.7 0.00 0.13 0.13 71 1035.6
20260510031804 13 88 4.8 9.7 0.00 0.13 0.13 70 1035.6
20260510031304 13 80 8.0 12.9 0.00 0.13 0.13 70 1035.6
20260510030804 13 127 8.0 11.3 0.00 0.13 0.13 68 1035.6
20260510030304 13 132 8.0 9.7 0.00 0.13 0.13 68 1035.6
20260510025804 13 134 8.0 9.7 0.00 0.13 0.13 67 1035.6
20260510024804 14 150 9.7 14.5 0.00 0.13 0.13 65 1035.6
20260510024305 15 123 11.3 14.5 0.00 0.13 0.13 64 1035.6
20260510023804 15 120 11.3 14.5 0.00 0.13 0.13 63 1035.6
20260510023304 15 117 14.5 14.5 0.00 0.13 0.13 59 1035.6
20260510022804 15 117 14.5 14.5 0.00 0.13 0.13 58 1035.6
20260510022307 16 113 9.7 12.9 0.00 0.13 0.13 57 1035.6
20260510021804 16 114 6.4 8.0 0.00 0.13 0.13 55 1035.6
20260510021304 16 114 9.7 9.7 0.00 0.13 0.13 54 1035.6
20260510020804 16 113 9.7 11.3 0.00 0.13 0.13 54 1035.6
20260510020304 16 111 4.8 4.8 0.00 0.13 0.13 54 1035.6
20260510015804 16 113 8.0 8.0 0.00 0.13 0.13 53 1035.6
20260510015306 17 114 8.0 11.3 0.00 0.13 0.13 53 1035.6
20260510014304 17 113 12.9 12.9 0.00 0.13 0.13 52 1035.6
20260510013805 17 105 9.7 11.3 0.00 0.13 0.13 52 1035.6
20260510013304 17 91 11.3 12.9 0.00 0.13 0.13 52 1035.6
20260510012306 17 99 4.8 9.7 0.00 0.13 0.13 52 1035.6
20260510011804 17 92 8.0 12.9 0.00 0.13 0.13 53 1035.6
20260510011304 17 85 9.7 14.5 0.00 0.13 0.13 52 1035.6
20260510010804 17 88 9.7 11.3 0.00 0.13 0.13 53 1035.6
20260510010304 17 92 8.0 11.3 0.00 0.13 0.13 52 1035.6
20260510005804 17 91 8.0 9.7 0.00 0.13 0.13 50 1035.6
20260510005306 17 96 11.3 14.5 0.00 0.13 0.13 50 1035.6
20260510004804 18 105 11.3 14.5 0.00 0.13 0.13 50 1035.6
20260510004304 18 76 8.0 9.7 0.00 0.13 0.13 48 1035.6
20260510003804 18 86 9.7 9.7 0.00 0.13 0.13 47 1035.6
20260510003304 18 13 9.7 9.7 0.00 0.13 0.13 45 1035.6
20260510002804 18 13 9.7 9.7 0.00 0.13 0.13 45 1035.6
20260510002306 18 51 8.0 11.3 0.00 0.13 0.13 45 1035.6
20260510001804 18 354 4.8 11.3 0.00 0.13 0.13 45 1035.6
20260510001304 18 355 1.6 12.9 0.00 0.13 0.13 45 1035.6
20260510000804 18 355 12.9 12.9 0.00 0.13 0.13 45 1035.6
20260510000307 18 347 9.7 14.5 0.00 0.13 0.13 46 1035.6
20260509235806 18 305 3.2 11.3 0.00 0.13 0.13 47 1035.6
20260509235307 18 338 3.2 11.3 0.00 0.13 0.13 48 1035.6
20260509234307 18 0 24.1 25.7 0.00 0.13 0.13 47 1035.6
20260509233806 18 41 16.1 24.1 0.00 0.13 0.13 47 1035.6
20260509233306 18 0 8.0 12.9 0.00 0.13 0.13 47 1035.6
20260509232306 18 355 11.3 19.3 0.00 0.13 0.13 47 1035.6
20260509231806 18 338 22.5 25.7 0.00 0.13 0.13 46 1035.6
20260509231306 18 5 19.3 22.5 0.00 0.13 0.13 47 1035.6
20260509230306 18 0 6.4 19.3 0.00 0.13 0.13 46 1035.6
20260509225306 18 24 9.7 19.3 0.00 0.13 0.13 46 1035.6
20260509224807 18 0 17.7 19.3 0.00 0.13 0.13 46 1035.6
20260509224307 18 9 9.7 9.7 0.00 0.13 0.13 46 1035.6
20260509223307 19 5 16.1 29.0 0.00 0.13 0.13 46 1035.6
20260509222807 19 350 11.3 19.3 0.00 0.13 0.13 47 1035.6
20260509222307 19 9 19.3 20.9 0.00 0.13 0.13 47 1035.6
20260509221807 18 5 14.5 20.9 0.00 0.13 0.13 47 1035.6
20260509221306 19 355 12.9 16.1 0.00 0.13 0.13 46 1035.6
20260509220806 19 355 16.1 24.1 0.00 0.13 0.13 46 1035.6
20260509220307 19 321 19.3 20.9 0.00 0.13 0.13 43 1035.6
20260509215806 19 0 17.7 19.3 0.00 0.13 0.13 44 1035.6
20260509215306 19 327 9.7 14.5 0.00 0.13 0.13 44 1035.6
20260509214807 18 348 11.3 22.5 0.00 0.13 0.13 44 1035.6
20260509214307 18 321 16.1 24.1 0.00 0.13 0.13 45 1035.6
20260509213806 18 332 14.5 25.7 0.00 0.13 0.13 44 1035.6
20260509213306 18 334 14.5 19.3 0.00 0.13 0.13 45 1035.6
20260509212806 18 324 17.7 32.2 0.00 0.13 0.13 46 1035.6
20260509212306 18 330 16.1 22.5 0.00 0.13 0.13 47 1035.6
20260509211806 18 350 25.7 37.0 0.00 0.13 0.13 47 1035.6
20260509211306 18 348 22.5 22.5 0.00 0.13 0.13 47 1035.6
20260509210806 18 353 19.3 32.2 0.00 0.13 0.13 48 1035.6
20260509210306 17 339 19.3 22.5 0.00 0.13 0.13 50 1035.6
20260509205307 17 24 16.1 19.3 0.00 0.13 0.13 50 1035.6
20260509204806 17 319 12.9 20.9 0.00 0.13 0.13 49 1035.6
20260509204306 17 331 16.1 22.5 0.00 0.13 0.13 49 1035.6
20260509203306 17 5 14.5 33.8 0.00 0.13 0.13 50 1035.6
20260509202806 17 320 19.3 33.8 0.00 0.13 0.13 49 1035.6
20260509202307 17 315 24.1 24.1 0.00 0.13 0.13 51 1035.6
20260509201806 17 295 14.5 25.7 0.00 0.13 0.13 51 1035.6
20260509201306 17 315 20.9 22.5 0.00 0.13 0.13 53 1035.6
20260509200806 17 290 19.3 25.7 0.00 0.13 0.13 51 1035.6
20260509200306 17 22 22.5 25.7 0.00 0.13 0.13 55 1035.6
20260509195307 17 304 12.9 19.3 0.10 0.13 0.13 55 1035.6
20260509194306 15 326 11.3 14.5 0.10 0.13 0.13 65 1035.6
20260509193806 15 351 1.6 3.2 0.10 0.13 0.13 74 1035.6
20260509193306 13 226 1.6 8.0 0.10 0.13 0.13 72 1035.6
20260509192806 13 238 1.6 4.8 0.10 0.13 0.13 74 1035.6
20260509191806 13 240 0.0 1.6 0.10 0.13 0.13 73 1035.6
20260509191306 12 240 4.8 9.7 0.10 0.13 0.13 71 1035.6
20260509190806 13 239 8.0 12.9 0.10 0.13 0.13 73 1035.6
20260509190306 13 338 12.9 12.9 0.10 0.13 0.13 69 1035.6
20260509185806 13 5 9.7 20.9 0.10 0.13 0.13 55 1035.6
20260509185307 15 305 20.9 20.9 0.00 0.03 0.03 55 1035.6
20260509184806 15 301 8.0 22.5 0.00 0.03 0.03 55 1035.6
20260509183806 16 307 11.3 16.1 0.00 0.03 0.03 54 1035.6
20260509183306 16 285 9.7 12.9 0.00 0.03 0.03 53 1035.6
20260509182307 16 355 16.1 20.9 0.00 0.03 0.03 59 1035.6
20260509181806 15 40 8.0 8.0 0.00 0.03 0.03 57 1035.6
20260509181306 15 40 8.0 8.0 0.00 0.03 0.03 61 1035.6
20260509180306 16 15 8.0 14.5 0.00 0.03 0.03 59 1035.6
20260509175806 15 28 14.5 14.5 0.00 0.03 0.03 60 1035.6
20260509175307 15 57 9.7 20.9 0.00 0.03 0.03 63 1035.6
20260509174806 15 34 16.1 32.2 0.00 0.03 0.03 63 1035.6
20260509174306 15 6 8.0 14.5 0.00 0.03 0.03 62 1035.6
20260509173805 15 17 11.3 22.5 0.00 0.03 0.03 61 1035.6
20260509172805 16 47 8.0 12.9 0.00 0.03 0.03 60 1035.6
20260509171805 16 19 12.9 12.9 0.00 0.03 0.03 60 1035.6
20260509171306 16 19 14.5 19.3 0.00 0.03 0.03 61 1035.6
20260509170306 15 8 14.5 19.3 0.00 0.03 0.03 62 1035.6
20260509165307 15 52 12.9 20.9 0.00 0.03 0.03 64 1035.6
20260509164806 15 38 19.3 19.3 0.00 0.03 0.03 64 1035.6
20260509164306 15 341 9.7 9.7 0.00 0.03 0.03 61 1035.6
20260509163806 15 341 8.0 14.5 0.00 0.03 0.03 60 1035.6
20260509163306 15 9 12.9 16.1 0.00 0.03 0.03 61 1035.6
20260509162806 15 34 9.7 19.3 0.00 0.03 0.03 61 1035.6
20260509161806 15 19 9.7 14.5 0.00 0.03 0.03 60 1035.6
20260509160806 15 24 11.3 14.5 0.00 0.03 0.03 59 1035.6
20260509160306 15 33 12.9 19.3 0.00 0.03 0.03 58 1035.6
20260509155805 15 11 14.5 16.1 0.00 0.03 0.03 58 1035.6
20260509154805 15 313 11.3 12.9 0.00 0.03 0.03 60 1035.6
20260509154305 15 21 9.7 14.5 0.00 0.03 0.03 60 1035.6
20260509153306 15 290 6.4 11.3 0.00 0.03 0.03 59 1035.6
20260509152805 15 274 8.0 11.3 0.00 0.03 0.03 60 1035.6
20260509152306 15 238 8.0 11.3 0.00 0.03 0.03 61 1035.6
20260509151806 14 234 6.4 11.3 0.00 0.03 0.03 63 1035.6
20260509151306 14 245 4.8 8.0 0.00 0.03 0.03 62 1035.6
20260509150805 13 244 6.4 9.7 0.00 0.03 0.03 62 1035.6
20260509150306 13 223 1.6 11.3 0.00 0.03 0.03 65 1035.6
20260509145805 13 238 8.0 11.3 0.00 0.03 0.03 63 1035.6
20260509145306 13 224 4.8 8.0 0.00 0.03 0.03 64 1035.6
20260509143806 13 225 8.0 9.7 0.00 0.03 0.03 65 1035.6
20260509143306 13 225 8.0 9.7 0.00 0.03 0.03 65 1035.6
20260509142806 13 224 8.0 8.0 0.00 0.03 0.03 65 1035.6
20260509142307 13 225 11.3 14.5 0.00 0.03 0.03 65 1035.6
20260509141305 13 239 9.7 9.7 0.00 0.03 0.03 67 1035.6
20260509140306 12 226 9.7 12.9 0.00 0.03 0.03 66 1035.6
20260509135806 12 210 4.8 9.7 0.00 0.03 0.03 68 1035.6
20260509135306 12 209 3.2 8.0 0.00 0.03 0.03 70 1035.6
20260509134805 12 209 4.8 8.0 0.00 0.03 0.03 70 1035.6
20260509134305 12 209 8.0 11.3 0.00 0.03 0.03 69 1035.6
20260509133805 12 209 8.0 8.0 0.00 0.03 0.03 69 1035.6
20260509133306 12 209 4.8 4.8 0.00 0.03 0.03 69 1035.6
20260509132805 12 209 6.4 9.7 0.00 0.03 0.03 69 1035.6
20260509132307 12 209 9.7 16.1 0.00 0.03 0.03 68 1035.6
20260509131806 12 209 9.7 16.1 0.00 0.03 0.03 68 1035.6
20260509131305 13 5 4.8 4.8 0.00 0.03 0.03 67 1035.6
20260509130805 13 317 1.6 3.2 0.00 0.03 0.03 63 1035.6
20260509130306 13 320 4.8 8.0 0.00 0.03 0.03 63 1035.6
20260509125308 13 324 8.0 19.3 0.00 0.03 0.03 64 1035.6
20260509124805 13 319 6.4 14.5 0.00 0.03 0.03 64 1035.6
20260509124305 13 296 8.0 11.3 0.00 0.03 0.03 64 1035.6
20260509123805 13 308 9.7 19.3 0.00 0.03 0.03 64 1035.6
20260509123305 13 317 8.0 9.7 0.00 0.03 0.03 65 1035.6
20260509122306 12 163 3.2 4.8 0.00 0.03 0.03 67 1035.6
20260509121806 12 161 4.8 8.0 0.00 0.03 0.03 67 1035.6
20260509121306 12 159 1.6 4.8 0.00 0.03 0.03 67 1035.6
20260509120805 12 159 6.4 8.0 0.00 0.03 0.03 67 1035.6
20260509120305 13 164 8.0 8.0 0.00 0.03 0.03 63 1035.6
20260509115806 13 184 3.2 8.0 0.00 0.03 0.03 63 1035.6
20260509115307 13 236 1.6 9.7 0.00 0.03 0.03 64 1035.6
20260509114806 13 236 9.7 9.7 0.00 0.03 0.03 63 1035.6
20260509113805 13 249 8.0 12.9 0.00 0.03 0.03 62 1035.6
20260509113305 13 296 4.8 14.5 0.00 0.03 0.03 62 1035.6
20260509112805 13 305 14.5 16.1 0.00 0.03 0.03 62 1035.6
20260509112307 13 273 4.8 11.3 0.00 0.03 0.03 62 1035.6
20260509111805 13 269 6.4 11.3 0.00 0.03 0.03 62 1035.6
20260509111306 13 252 9.7 9.7 0.00 0.03 0.03 62 1035.6
20260509110805 14 252 11.3 14.5 0.00 0.03 0.03 61 1035.6
20260509110306 14 250 11.3 16.1 0.00 0.03 0.03 61 1035.6
20260509105805 14 271 16.1 16.1 0.00 0.03 0.03 60 1035.6
20260509105306 14 258 9.7 12.9 0.00 0.03 0.03 60 1035.6
20260509104806 14 253 14.5 14.5 0.00 0.03 0.03 60 1035.6
20260509104305 14 257 12.9 14.5 0.00 0.03 0.03 60 1035.6
20260509103805 14 251 12.9 14.5 0.00 0.03 0.03 61 1035.6
20260509103305 14 244 9.7 11.3 0.00 0.03 0.03 63 1035.6
20260509102805 14 246 11.3 12.9 0.00 0.03 0.03 63 1035.6
20260509101305 13 251 4.8 9.7 0.00 0.03 0.03 64 1035.6
20260509100805 13 246 9.7 9.7 0.00 0.03 0.03 70 1035.6
20260509100305 13 246 9.7 12.9 0.00 0.03 0.03 71 1035.6
20260509095805 13 221 9.7 11.3 0.00 0.03 0.03 70 1035.6
20260509095306 13 217 9.7 9.7 0.00 0.03 0.03 68 1035.6
20260509094805 13 287 8.0 8.0 0.00 0.03 0.03 65 1035.6
20260509094305 14 298 3.2 8.0 0.00 0.03 0.03 64 1035.6
20260509093805 14 300 4.8 9.7 0.00 0.03 0.03 64 1035.6
20260509093305 13 305 9.7 9.7 0.00 0.03 0.03 65 1035.6
20260509092806 13 294 8.0 11.3 0.03 0.03 0.03 68 1035.6
20260509092306 13 40 0.0 0.0 0.03 0.03 0.03 69 1035.6
20260509091804 13 40 0.0 0.0 0.03 0.03 0.03 70 1035.6
20260509091305 13 41 0.0 0.0 0.03 0.03 0.03 71 1035.6
20260509090805 13 41 0.0 4.8 0.03 0.03 0.03 72 1035.6
20260509090306 13 40 4.8 8.0 0.03 0.03 0.03 72 1035.6
20260509085805 13 41 0.0 4.8 0.03 0.03 0.03 72 1035.6
20260509085306 13 42 3.2 8.0 0.03 0.03 0.03 71 1035.6
20260509084805 14 40 4.8 4.8 0.03 0.03 0.03 68 1035.6
20260509084305 15 40 0.0 0.0 0.03 0.03 0.03 67 1035.6
20260509083805 15 40 1.6 12.9 0.03 0.03 0.03 63 1035.6
20260509083305 15 19 8.0 9.7 0.03 0.03 0.03 61 1035.6
20260509082805 16 21 8.0 11.3 0.00 0.00 0.00 57 1035.6
20260509081805 17 30 11.3 14.5 0.00 0.00 0.00 52 1035.6
20260509081305 17 28 6.4 41.8 0.00 0.00 0.00 49 1035.6
20260509080305 17 353 14.5 19.3 0.00 0.00 0.00 46 1035.6
20260509075805 17 329 9.7 25.7 0.00 0.00 0.00 44 1035.6
20260509075306 17 292 8.0 12.9 0.00 0.00 0.00 45 1035.6
20260509074305 17 19 8.0 12.9 0.00 0.00 0.00 44 1035.6
20260509073805 17 344 4.8 9.7 0.00 0.00 0.00 44 1035.6
20260509073305 17 261 4.8 11.3 0.00 0.00 0.00 44 1035.6
20260509072306 17 245 9.7 19.3 0.00 0.00 0.00 43 1035.6
20260509071805 17 274 12.9 20.9 0.00 0.00 0.00 43 1035.6
20260509071305 17 246 17.7 24.1 0.00 0.00 0.00 43 1035.6
20260509070805 17 243 12.9 24.1 0.00 0.00 0.00 43 1035.6
20260509070305 18 263 14.5 19.3 0.00 0.00 0.00 43 1035.6
20260509065805 18 263 9.7 16.1 0.00 0.00 0.00 43 1035.6
20260509065306 18 271 9.7 20.9 0.00 0.00 0.00 43 1035.6
20260509064804 18 257 9.7 19.3 0.00 0.00 0.00 42 1035.6
20260509064305 18 262 9.7 24.1 0.00 0.00 0.00 40 1035.6
20260509063805 18 251 19.3 29.0 0.00 0.00 0.00 40 1035.6
20260509063304 18 250 20.9 35.4 0.00 0.00 0.00 39 1035.6
20260509062804 18 263 20.9 37.0 0.00 0.00 0.00 40 1035.6
20260509062306 18 252 20.9 25.7 0.00 0.00 0.00 39 1035.6
20260509061804 18 260 22.5 24.1 0.00 0.00 0.00 40 1035.6
20260509061305 18 247 24.1 24.1 0.00 0.00 0.00 39 1035.6